TimeCST,TemperatureF,Dew PointF,Humidity,Sea Level PressureIn,VisibilityMPH,Wind Direction,Wind SpeedMPH,Gust SpeedMPH,PrecipitationIn,Events,Conditions,WindDirDegrees,DateUTC
12:15 AM,28.4,24.3,84,30.30,10.0,WNW,3.5,-,N/A,,Overcast,300,2013-03-07 06:15:00
12:35 AM,28.4,24.1,84,30.31,10.0,Calm,Calm,-,N/A,,Overcast,0,2013-03-07 06:35:00
12:55 AM,28.4,24.1,84,30.31,10.0,Calm,Calm,-,N/A,,Overcast,0,2013-03-07 06:55:00
1:15 AM,28.4,24.1,84,30.32,10.0,WNW,3.5,-,N/A,,Overcast,290,2013-03-07 07:15:00
1:35 AM,28.2,23.9,84,30.32,10.0,Calm,Calm,-,N/A,,Overcast,0,2013-03-07 07:35:00
1:55 AM,28.2,23.9,84,30.33,10.0,WNW,3.5,-,N/A,,Overcast,300,2013-03-07 07:55:00
2:15 AM,28.2,23.9,84,30.33,10.0,Calm,Calm,-,N/A,,Overcast,0,2013-03-07 08:15:00
2:35 AM,28.2,23.9,84,30.33,10.0,WNW,3.5,-,N/A,,Overcast,300,2013-03-07 08:35:00
2:55 AM,28.0,23.9,84,30.34,10.0,Calm,Calm,-,N/A,,Overcast,0,2013-03-07 08:55:00
3:15 AM,28.2,23.9,84,30.34,10.0,Calm,Calm,-,N/A,,Overcast,0,2013-03-07 09:15:00
3:35 AM,28.2,23.9,84,30.34,10.0,Calm,Calm,-,N/A,,Overcast,0,2013-03-07 09:35:00
3:55 AM,28.2,23.9,84,30.34,10.0,Calm,Calm,-,N/A,,Overcast,0,2013-03-07 09:55:00
4:15 AM,28.2,24.1,84,30.34,10.0,Calm,Calm,-,N/A,,Overcast,0,2013-03-07 10:15:00
4:35 AM,28.2,24.1,84,30.34,10.0,Calm,Calm,-,N/A,,Overcast,0,2013-03-07 10:35:00
4:55 AM,28.0,23.9,84,30.34,10.0,Calm,Calm,-,N/A,,Overcast,0,2013-03-07 10:55:00
5:15 AM,28.0,24.3,86,30.34,10.0,Calm,Calm,-,N/A,,Overcast,0,2013-03-07 11:15:00
5:35 AM,27.5,23.9,86,30.34,10.0,Calm,Calm,-,N/A,,Overcast,0,2013-03-07 11:35:00
5:55 AM,27.5,23.9,86,30.35,10.0,Calm,Calm,-,N/A,,Overcast,0,2013-03-07 11:55:00
6:15 AM,27.5,23.9,86,30.36,10.0,Calm,Calm,-,N/A,,Overcast,0,2013-03-07 12:15:00
6:35 AM,27.5,23.7,86,30.36,10.0,Calm,Calm,-,N/A,,Overcast,0,2013-03-07 12:35:00
6:55 AM,27.5,23.7,86,30.37,10.0,Calm,Calm,-,N/A,,Overcast,0,2013-03-07 12:55:00
7:15 AM,28.0,23.7,84,30.38,10.0,Calm,Calm,-,N/A,,Overcast,0,2013-03-07 13:15:00
7:35 AM,28.4,23.7,83,30.38,10.0,Calm,Calm,-,N/A,,Overcast,0,2013-03-07 13:35:00
7:55 AM,28.6,23.2,80,30.38,10.0,Calm,Calm,-,N/A,,Mostly Cloudy,0,2013-03-07 13:55:00
8:15 AM,29.7,23.4,77,30.38,10.0,NNW,3.5,-,N/A,,Scattered Clouds,340,2013-03-07 14:15:00
8:35 AM,29.3,23.4,78,30.39,10.0,North,5.8,-,N/A,,Mostly Cloudy,350,2013-03-07 14:35:00
8:55 AM,30.2,23.5,76,30.39,10.0,NNW,3.5,-,N/A,,Overcast,330,2013-03-07 14:55:00
9:15 AM,31.1,23.9,75,30.40,10.0,WNW,3.5,-,N/A,,Overcast,300,2013-03-07 15:15:00
9:35 AM,31.5,23.9,74,30.40,10.0,Calm,Calm,-,N/A,,Overcast,0,2013-03-07 15:35:00
9:55 AM,32.0,23.7,71,30.40,10.0,Calm,Calm,-,N/A,,Overcast,0,2013-03-07 15:55:00
10:15 AM,32.2,24.1,72,30.41,10.0,WNW,3.5,-,N/A,,Overcast,290,2013-03-07 16:15:00
10:35 AM,33.8,24.8,70,30.41,10.0,Calm,Calm,-,N/A,,Overcast,0,2013-03-07 16:35:00
10:55 AM,33.3,23.4,67,30.40,10.0,Calm,Calm,-,N/A,,Overcast,0,2013-03-07 16:55:00
11:15 AM,33.6,23.0,65,30.39,10.0,WNW,3.5,-,N/A,,Overcast,300,2013-03-07 17:15:00
11:35 AM,34.3,23.2,64,30.40,10.0,West,5.8,-,N/A,,Overcast,270,2013-03-07 17:35:00
11:55 AM,34.2,23.2,64,30.40,10.0,West,5.8,-,N/A,,Overcast,270,2013-03-07 17:55:00
12:15 PM,34.0,23.5,66,30.39,10.0,NW,5.8,-,N/A,,Overcast,310,2013-03-07 18:15:00
12:35 PM,34.7,23.7,64,30.39,10.0,West,6.9,-,N/A,,Overcast,260,2013-03-07 18:35:00
12:55 PM,34.5,22.8,62,30.39,10.0,WNW,6.9,-,N/A,,Overcast,290,2013-03-07 18:55:00
1:15 PM,34.7,22.8,62,30.39,10.0,West,5.8,-,N/A,,Overcast,270,2013-03-07 19:15:00
1:35 PM,34.7,22.6,61,30.38,10.0,West,4.6,-,N/A,,Overcast,260,2013-03-07 19:35:00
1:55 PM,35.2,21.9,58,30.37,10.0,West,3.5,-,N/A,,Overcast,280,2013-03-07 19:55:00
2:15 PM,34.7,21.7,59,30.37,10.0,West,5.8,-,N/A,,Mostly Cloudy,270,2013-03-07 20:15:00
2:35 PM,34.3,21.9,60,30.37,10.0,West,3.5,-,N/A,,Scattered Clouds,270,2013-03-07 20:35:00
2:55 PM,34.9,21.9,59,30.38,10.0,Calm,Calm,-,N/A,,Scattered Clouds,0,2013-03-07 20:55:00
3:15 PM,34.7,21.9,60,30.37,10.0,Calm,Calm,-,N/A,,Clear,0,2013-03-07 21:15:00
3:35 PM,34.7,22.1,60,30.39,10.0,West,4.6,-,N/A,,Clear,280,2013-03-07 21:35:00
3:55 PM,34.3,22.1,61,30.39,10.0,West,6.9,-,N/A,,Clear,270,2013-03-07 21:55:00
4:15 PM,33.8,22.1,62,30.39,10.0,West,4.6,-,N/A,,Clear,270,2013-03-07 22:15:00
4:35 PM,33.6,22.3,63,30.39,10.0,West,5.8,-,N/A,,Clear,270,2013-03-07 22:35:00
4:55 PM,33.1,22.3,65,30.39,10.0,WNW,5.8,-,N/A,,Clear,290,2013-03-07 22:55:00
5:15 PM,32.9,21.9,64,30.38,10.0,Calm,Calm,-,N/A,,Clear,0,2013-03-07 23:15:00
5:35 PM,32.0,23.0,69,30.39,10.0,Calm,Calm,-,N/A,,Clear,0,2013-03-07 23:35:00
5:55 PM,32.0,22.6,68,30.39,10.0,Calm,Calm,-,N/A,,Clear,0,2013-03-07 23:55:00
7:35 PM,29.3,22.5,76,30.40,10.0,Calm,Calm,-,N/A,,Clear,0,2013-03-08 01:35:00
7:55 PM,26.6,22.5,84,30.40,10.0,Calm,Calm,-,N/A,,Clear,0,2013-03-08 01:55:00
8:15 PM,26.2,23.0,88,30.40,10.0,Calm,Calm,-,N/A,,Clear,0,2013-03-08 02:15:00
8:35 PM,24.8,23.0,93,30.40,10.0,Calm,Calm,-,N/A,,Clear,0,2013-03-08 02:35:00
8:55 PM,24.4,22.1,91,30.41,10.0,Calm,Calm,-,N/A,,Clear,0,2013-03-08 02:55:00
9:15 PM,23.9,22.1,93,30.41,10.0,Calm,Calm,-,N/A,,Clear,0,2013-03-08 03:15:00
9:35 PM,23.5,22.1,94,30.41,7.0,Calm,Calm,-,N/A,,Scattered Clouds,0,2013-03-08 03:35:00
9:55 PM,22.5,21.2,95,30.41,7.0,Calm,Calm,-,N/A,,Clear,0,2013-03-08 03:55:00
10:15 PM,22.3,20.5,93,30.41,7.0,Calm,Calm,-,N/A,,Clear,0,2013-03-08 04:15:00
10:35 PM,22.6,21.6,96,30.41,5.0,Calm,Calm,-,N/A,,Clear,0,2013-03-08 04:35:00
10:55 PM,21.9,21.0,96,30.41,5.0,Calm,Calm,-,N/A,,Clear,0,2013-03-08 04:55:00
11:15 PM,20.5,19.6,96,30.41,4.0,Calm,Calm,-,N/A,,Clear,0,2013-03-08 05:15:00
11:35 PM,19.4,18.5,96,30.41,4.0,Calm,Calm,-,N/A,,Clear,0,2013-03-08 05:35:00
11:55 PM,19.8,18.9,96,30.42,5.0,Calm,Calm,-,N/A,,Clear,0,2013-03-08 05:55:00